Погода в Лебяжьем 1-ом

Россия / Курганская область     55°19′37″N   66°27′24″E
В апреле 2022 года жителям России запретили посещать сайт meteo.paraplan.net по решению Генеральной прокуратуры. Аудитория сайта уменьшилась в 10 раз. Владельцы сайта не видят смысла в поддержке погодного сервера в таких условиях. Сайт будет закрыт в октябре.
темп.,
°C
ветер,
м/с
пор.,
м/с
влажн.,
%
обл.,
%
осадки,
мм/ч
давл.,
гПа
погр.,
м
4 октября, вт
вт423:00+5ююз484825 0.0 1032139
02:00+4ююз4104751 0.0 1032178
05:00+3юз41149100 0.0 1033175
08:00+5юз51246100 0.0 1033259
11:00+6юз51047100 0.0 1034250
14:00+10зюз7113495 0.0 1034396
17:00+11зюз5103923 0.0 1034345
20:00+7зюз410485 0.0 1035153
5 октября, ср
ср523:00+7зюз49525 0.0 1035129
02:00+6зюз464910 0.0 103579
05:00+5зюз49445 0.0 1036145
08:00+6зюз41040100 0.0 1036204
11:00+12юз692760 0.0 1035438
14:00+14зюз6924100 0.0 1034713
17:00+12юз4832100 0.0 1033209
20:00+9юз3837100 0.0 1033163
6 октября, чт
чт623:00+9юз41036100 0.0 1032197
02:00+8юз3937100 0.0 1032171
05:00+8юз3637100 0.0 1030117
08:00+8ююз493798 0.0 1029175
11:00+12ююз3729100 0.0 1028331
14:00+14ююз5724100 0.0 1027539
17:00+12ю4830100 0.0 1025208
20:00+10ю41133100 0.0 1024201
7 октября, пт
пт723:00+9ю41132100 0.0 1023205
02:00+8ююз41032100 0.0 1021172
05:00+8ююз4933100 0.0 1020147
08:00+8ююз3833100 0.0 1019155
11:00+12ююз5925100 0.0 1017386
14:00+14юз5727100 0.0 1016716
17:00+13ююз2337100 0.0 101551
20:00+10юз1134100 0.0 101310
8 октября, сб
сб823:00+10зсз3358100 0.0 101352
02:00+10вюв3465100 0.1 101174
05:00+9ююз3473100 0.1 1010126
08:00+9зюз3680100 0.0 1009337
11:00+8з469296 0.6 1009391
14:00+7зсз5880100 0.5 1009571
17:00+9з4667100 0.6 10091202
20:00+7зсз5779100 0.1 1010871